Hourly Data Report for September 19, 2017

All times are specified in Local Standard Time (LST). Add 1 hour to adjust for Daylight Saving Time where and when it is observed.

CHARLOTTETOWN A
PRINCE EDWARD ISLAND

46°17'21.000" N
63°07'09.000" W
48.50 m
8300301
71706
YYG

Download Data

Hourly Data (September 2017)
Hourly Data Report for September 19, 2017
Temp Definition
°C
Dew Point Temp Definition
°C
Rel Hum Definition
%
Wind Dir Definition
10's deg

Wind Spd Definition
km/h
Visibility Definition
km
Stn Press Definition
kPa
Hmdx Definition


Wind Chill Definition


Weather Definition


TIME
00:00 Legend Double Dagger 17.8 16.4 92 19 19 24.1 101.97     LegendNANA
01:00 Legend Double Dagger 17.7 15.8 88 18 16 24.1 101.99     LegendNANA
02:00 Legend Double Dagger 17.5 15.7 89 17 16 24.1 101.96     Cloudy
03:00 Legend Double Dagger 17.0 16.0 94 18 15 12.9 101.94     LegendNANA
04:00 Legend Double Dagger 16.6 15.6 94 17 14 12.9 101.94     LegendNANA
05:00 Legend Double Dagger 16.5 15.6 94 17 16 24.1 101.93     Cloudy
06:00 Legend Double Dagger 16.5 15.6 94 17 12 24.1 101.97     LegendNANA
07:00 Legend Double Dagger 16.9 15.9 94 18 16 24.1 101.98     LegendNANA
08:00 Legend Double Dagger 17.9 16.2 90 18 14 24.1 101.96     Cloudy
09:00 Legend Double Dagger 17.4 16.2 92 15 9 16.1 101.98     Drizzle,Fog
10:00 Legend Double Dagger 17.2 16.4 95 16 6 4.8 101.98     Drizzle,Fog
11:00 Legend Double Dagger 17.2 16.6 96 12 10 3.2 101.94     Drizzle,Fog
12:00 Legend Double Dagger 17.8 17.2 96 14 8 8.1 101.90     Drizzle,Fog
13:00 Legend Double Dagger 18.3 17.6 96 17 10 9.7 101.85     Fog
14:00 Legend Double Dagger 18.8 17.8 94 16 13 12.9 101.80     Cloudy
15:00 Legend Double Dagger 19.0 18.1 94 15 14 16.1 101.75     Drizzle
16:00 Legend Double Dagger 19.4 18.5 94 17 13 16.1 101.69     LegendNANA
17:00 Legend Double Dagger 19.7 18.8 94 16 11 24.1 101.66     Mostly Cloudy
18:00 Legend Double Dagger 19.5 18.7 95 16 8 24.1 101.63     LegendNANA
19:00 Legend Double Dagger 19.4 18.7 96 16 8 19.3 101.64     LegendNANA
20:00 Legend Double Dagger 19.7 18.9 95 16 12 24.1 101.64     Cloudy
21:00 Legend Double Dagger 19.9 18.7 93 16 16 24.1 101.64     LegendNANA
22:00 Legend Double Dagger 19.9 18.7 93 18 14 16.1 101.63     LegendNANA
23:00 Legend Double Dagger 19.3 18.3 94 17 19 16.1 101.58     Cloudy

Notes on Data Quality.

Legend

  • E = Estimated
  • M = Missing
  • NA = Not Available
  • ‡ = Partner data that is not subject to review by the National Climate Archives
Date modified: